Find Local Weather

World > North America > United States > Kansas

Lake Wabaunsee, Kansas Regional Weather

Lat: 38.87N, Lon: 96.2W
Wx Zone: KSZ038
Feedback
Expires:201805280000;;034919
ASUS43 KEAX 272310
RWREAX

WEATHER ROUNDUP FOR EASTERN KANSAS AND NORTHWEST MISSOURI
NATIONAL WEATHER SERVICE KANSAS CITY/PLEASANT HILL MO
600 PM CDT SUN MAY 27 2018


IAZ060-094-KSZ022-034>040-054-083-096-NEZ052-066-093-280000- 
...KANSAS...SOUTHEAST NEBRASKA AND IOWA...
  
CITY           SKY/WX    TMP DP  RH WIND       PRES   REMARKS
TOPEKA         CLOUDY    92  69  47 S9        29.84F HX  97           
MANHATTAN      SUNNY     94  66  39 S13       29.83F HX  97           
EMPORIA        MOSUNNY   88  69  53 S10       29.86F HX  92           
CHANUTE        MOSUNNY   88  72  58 SE7       29.87F HX  94           
WICHITA        MOSUNNY   92  58  31 SE17G24   29.83F HX  91           
OMAHA          PTSUNNY   99  57  24 S12       29.80S HX  98           
LINCOLN        CLOUDY    94  57  28 S15       29.82F HX  92           
FALLS CITY     CLOUDY    94  59  31 S12       29.82S HX  93           
LAMONI         SUNNY     94  68  42 SE3       29.84S HX  98           
DES MOINES     CLOUDY    96  63  33 SE7       29.81S HX  97           

$$

  

SKY/WX - Weather  TMP - Temperature  DP - Dewpoint  RH - Relative Humidity
WIND - Wind Direction/Speed PRES - Barometric Pressure